Cloud_Cover
0 1 92 100 100 100 27 0 0 0 0 0 30 100 100 100 100 100 100 100 100 100 100 100 100 95 25
5 0 90 100 100 100 100 34 4 0 0 0 3 6 100 100 100 96 100 100 100 100 100 100 100 100 100
61 92 88 59 100 100 100 100 98 6 22 21 9 61 6 0 3 29 100 100 100 100 100 100 100 100 84
92 100 96 70 100 100 100 100 100 100 8 5 6 37 22 4 3 10 67 100 100 100 100 100 100 100 100
100 100 100 100 100 100 100 100 89 100 100 67 44 95 12 52 35 38 21 86 100 100 100 100 98 100 100
100 100 100 100 100 100 100 100 90 100 100 100 100 97 66 5 44 74 31 100 100 100 100 100 100 100 100
90 100 100 100 100 100 100 76 81 99 100 100 100 100 100 100 100 100 98 100 100 100 100 100 100 100 100
100 100 99 100 100 100 100 100 100 100 100 98 85 100 100 100 100 100 100 99 100 100 100 100 100 100 100
100 100 100 100 100 100 100 100 100 100 99 100 100 97 99 100 100 100 100 100 100 100 100 100 100 100 100
100 100 100 100 100 100 100 100 100 100 100 100 100 99 100 100 100 100 100 100 100 100 100 100 100 100 100
100 100 100 100 100 100 100 100 100 100 100 100 100 100 100 100 100 100 100 100 100 100 100 100 100 100 100
100 100 100 100 100 100 100 100 100 100 100 100 100 100 100 100 100 100 100 100 100 100 100 100 100 100 100
100 100 100 100 100 100 100 100 100 100 100 100 100 100 100 100 100 100 100 100 100 100 100 100 100 100 100
100 100 100 100 100 100 100 100 100 100 100 100 100 100 100 100 100 100 100 100 100 100 100 100 100 100 100
100 100 100 100 100 100 100 100 100 100 100 100 100 100 100 100 100 100 100 100 100 100 100 100 100 100 100
100 100 100 100 100 100 100 100 100 100 100 100 100 100 100 100 100 100 100 100 100 100 100 100 100 100 100
100 100 100 100 100 100 100 100 100 100 100 100 100 100 100 100 100 100 100 100 100 100 100 100 100 100 100